KKK60C LTFE-LTBA

Flight info

Callsign KKK60C
Flight time 0h 48m
Altitude 36000
Route AKBUK UG80 KONEN
Aircraft A320/M-SDE3FGHIRWY/LB1

Departure

Time 2026-04-24 21:53
Airport Milas Bodrum International Airport (LTFE)

Arrival

Time 2026-04-24 22:41
Airport İstanbul Atatürk Airport (LTBA)
Time Latitude Longitude Altitude Speed Heading
2026-04-24 21:24 37.24507 27.67341 31 ft 0 kts 197°
2026-04-24 21:40 37.24524 27.67348 31 ft 4 kts 197°
2026-04-24 21:40 37.24544 27.67356 31 ft 4 kts 203°
2026-04-24 21:41 37.24562 27.67373 31 ft 4 kts 259°
2026-04-24 21:41 37.24560 27.67402 31 ft 4 kts 286°
2026-04-24 21:41 37.24558 27.67409 31 ft 0 kts 286°
2026-04-24 21:44 37.24558 27.67408 31 ft 0 kts 286°
2026-04-24 21:45 37.24560 27.67403 31 ft 1 kts 286°
2026-04-24 21:45 37.24562 27.67392 31 ft 2 kts 286°
2026-04-24 21:45 37.24568 27.67369 31 ft 4 kts 287°
2026-04-24 21:45 37.24577 27.67329 31 ft 6 kts 286°
2026-04-24 21:46 37.24590 27.67272 31 ft 7 kts 285°
2026-04-24 21:46 37.24606 27.67208 31 ft 8 kts 287°
2026-04-24 21:46 37.24623 27.67140 30 ft 9 kts 286°
2026-04-24 21:46 37.24640 27.67065 30 ft 9 kts 287°
2026-04-24 21:47 37.24660 27.66986 30 ft 10 kts 287°
2026-04-24 21:47 37.24704 27.66969 30 ft 8 kts 14°
2026-04-24 21:47 37.24761 27.66958 30 ft 9 kts 339°
2026-04-24 21:47 37.24817 27.66916 29 ft 10 kts 322°
2026-04-24 21:48 37.24863 27.66842 28 ft 12 kts 289°
2026-04-24 21:48 37.24887 27.66744 28 ft 12 kts 285°
2026-04-24 21:48 37.24912 27.66642 28 ft 13 kts 287°
2026-04-24 21:48 37.24938 27.66531 28 ft 14 kts 287°
2026-04-24 21:49 37.24966 27.66412 29 ft 15 kts 286°
2026-04-24 21:49 37.24996 27.66288 31 ft 15 kts 287°
2026-04-24 21:49 37.25029 27.66152 31 ft 18 kts 287°
2026-04-24 21:49 37.25066 27.65994 31 ft 20 kts 287°
2026-04-24 21:50 37.25109 27.65818 30 ft 22 kts 287°
2026-04-24 21:50 37.25155 27.65621 30 ft 24 kts 287°
2026-04-24 21:50 37.25206 27.65409 30 ft 26 kts 286°
2026-04-24 21:50 37.25259 27.65187 31 ft 26 kts 286°
2026-04-24 21:51 37.25297 27.65028 31 ft 13 kts 287°
2026-04-24 21:51 37.25326 27.64913 32 ft 14 kts 293°
2026-04-24 21:51 37.25417 27.64901 32 ft 16 kts 17°
2026-04-24 21:51 37.25473 27.65006 33 ft 17 kts 96°
2026-04-24 21:52 37.25461 27.65061 32 ft 0 kts 107°
2026-04-24 21:52 37.25448 27.65116 32 ft 28 kts 107°
2026-04-24 21:52 37.25323 27.65641 29 ft 94 kts 107°
2026-04-24 21:52 37.25087 27.66632 30 ft 143 kts 107°
2026-04-24 21:53 37.24774 27.67933 366 ft 155 kts 107°
2026-04-24 21:53 37.24465 27.69220 965 ft 154 kts 107°
2026-04-24 21:53 37.24155 27.70511 1511 ft 155 kts 106°
2026-04-24 21:53 37.23839 27.71838 1906 ft 167 kts 105°
2026-04-24 21:54 37.23485 27.73327 2103 ft 191 kts 105°
2026-04-24 21:54 37.23080 27.75022 2389 ft 214 kts 105°
2026-04-24 21:54 37.22630 27.76910 2734 ft 238 kts 104°
2026-04-24 21:54 37.22520 27.79049 3220 ft 255 kts 77°
2026-04-24 21:55 37.23302 27.81043 4023 ft 260 kts 48°
2026-04-24 21:55 37.24822 27.82272 4886 ft 267 kts 17°
2026-04-24 21:55 37.26692 27.82352 5679 ft 275 kts 353°
2026-04-24 21:55 37.28598 27.81970 6447 ft 280 kts 352°
2026-04-24 21:56 37.30535 27.81555 7209 ft 284 kts 351°
2026-04-24 21:56 37.32499 27.81127 7997 ft 288 kts 351°
2026-04-24 21:56 37.34512 27.81030 8757 ft 292 kts
2026-04-24 21:56 37.36550 27.81278 9521 ft 297 kts
2026-04-24 21:57 37.38621 27.81545 10238 ft 302 kts
2026-04-24 21:57 37.40786 27.81833 10496 ft 324 kts
2026-04-24 21:57 37.43109 27.82147 10665 ft 347 kts
2026-04-24 21:57 37.45563 27.82478 11024 ft 360 kts
2026-04-24 21:58 37.48074 27.82814 11644 ft 365 kts
2026-04-24 21:58 37.50612 27.83152 12307 ft 368 kts
2026-04-24 21:58 37.53171 27.83493 12968 ft 372 kts
2026-04-24 21:58 37.55755 27.83835 13647 ft 375 kts
2026-04-24 21:59 37.58326 27.84175 14226 ft 378 kts
2026-04-24 21:59 37.60948 27.84520 14822 ft 380 kts
2026-04-24 21:59 37.63585 27.84867 15426 ft 382 kts
2026-04-24 21:59 37.66237 27.85218 16020 ft 384 kts
2026-04-24 22:00 37.68898 27.85571 16614 ft 386 kts
2026-04-24 22:00 37.71579 27.85929 17214 ft 388 kts
2026-04-24 22:00 37.74279 27.86290 17844 ft 391 kts
2026-04-24 22:00 37.76988 27.86649 18443 ft 393 kts
2026-04-24 22:01 37.79715 27.87012 18985 ft 396 kts
2026-04-24 22:01 37.82468 27.87379 19531 ft 399 kts
2026-04-24 22:01 37.85238 27.87748 20066 ft 402 kts
2026-04-24 22:01 37.88031 27.88119 20584 ft 405 kts
2026-04-24 22:02 37.90845 27.88493 21082 ft 408 kts
2026-04-24 22:02 37.93682 27.88872 21561 ft 411 kts
2026-04-24 22:02 37.96537 27.89256 22031 ft 414 kts
2026-04-24 22:02 37.99421 27.89643 22480 ft 417 kts
2026-04-24 22:03 38.02319 27.90029 22924 ft 420 kts
2026-04-24 22:03 38.05237 27.90417 23378 ft 423 kts
2026-04-24 22:03 38.08176 27.90809 23767 ft 426 kts
2026-04-24 22:03 38.11130 27.91208 24149 ft 427 kts
2026-04-24 22:04 38.14094 27.91609 24498 ft 430 kts
2026-04-24 22:04 38.17042 27.92006 24829 ft 432 kts
2026-04-24 22:04 38.20044 27.92409 25155 ft 435 kts
2026-04-24 22:04 38.23060 27.92813 25484 ft 438 kts
2026-04-24 22:05 38.26099 27.93224 25806 ft 440 kts
2026-04-24 22:05 38.29156 27.93638 26142 ft 443 kts
2026-04-24 22:05 38.32234 27.94056 26484 ft 445 kts
2026-04-24 22:05 38.35323 27.94478 26820 ft 448 kts
2026-04-24 22:06 38.38433 27.94899 27154 ft 450 kts
2026-04-24 22:06 38.41559 27.95319 27473 ft 453 kts
2026-04-24 22:06 38.44701 27.95742 27787 ft 455 kts
2026-04-24 22:06 38.47856 27.96171 28086 ft 458 kts
2026-04-24 22:07 38.51021 27.96604 28573 ft 455 kts
2026-04-24 22:07 38.54126 27.97030 29078 ft 454 kts
2026-04-24 22:07 38.57258 27.97458 29538 ft 453 kts
2026-04-24 22:07 38.60387 27.97885 30002 ft 452 kts
2026-04-24 22:08 38.63513 27.98311 30394 ft 451 kts
2026-04-24 22:08 38.66632 27.98736 30779 ft 451 kts
2026-04-24 22:08 38.69748 27.99158 31194 ft 449 kts
2026-04-24 22:08 38.72843 27.99579 31692 ft 446 kts
2026-04-24 22:09 38.75923 27.99998 32129 ft 445 kts
2026-04-24 22:09 38.78997 28.00415 32537 ft 444 kts
2026-04-24 22:09 38.82067 28.00834 32925 ft 444 kts
2026-04-24 22:09 38.85133 28.01256 33304 ft 444 kts
2026-04-24 22:10 38.88211 28.01681 33700 ft 443 kts
2026-04-24 22:10 38.91265 28.02103 34180 ft 439 kts
2026-04-24 22:10 38.94289 28.02517 34576 ft 437 kts
2026-04-24 22:10 38.97314 28.02932 34892 ft 437 kts
2026-04-24 22:11 39.00335 28.03348 35192 ft 436 kts
2026-04-24 22:11 39.03354 28.03765 35466 ft 437 kts
2026-04-24 22:11 39.06378 28.04185 35730 ft 437 kts
2026-04-24 22:11 39.09397 28.04605 35956 ft 437 kts
2026-04-24 22:12 39.12424 28.05025 36027 ft 439 kts
2026-04-24 22:12 39.18565 28.05872 36034 ft 446 kts
2026-04-24 22:13 39.24707 28.06724 36039 ft 447 kts
2026-04-24 22:13 39.30903 28.07586 36042 ft 448 kts
2026-04-24 22:14 39.37106 28.08448 36046 ft 449 kts
2026-04-24 22:14 39.43318 28.09315 36056 ft 449 kts
2026-04-24 22:15 39.49530 28.10180 36066 ft 449 kts
2026-04-24 22:15 39.55741 28.11045 36074 ft 449 kts
2026-04-24 22:16 39.61950 28.11914 36075 ft 448 kts
2026-04-24 22:16 39.68153 28.12784 36070 ft 448 kts
2026-04-24 22:17 39.74296 28.13648 36075 ft 447 kts
2026-04-24 22:17 39.80470 28.14522 36075 ft 446 kts
2026-04-24 22:18 39.86630 28.15397 35981 ft 445 kts
2026-04-24 22:18 39.89699 28.15833 35728 ft 442 kts
2026-04-24 22:18 39.92755 28.16266 35477 ft 441 kts
2026-04-24 22:18 39.95804 28.16696 35228 ft 441 kts
2026-04-24 22:19 39.98852 28.17124 34988 ft 440 kts
2026-04-24 22:19 40.01898 28.17552 34754 ft 440 kts
2026-04-24 22:19 40.04938 28.17981 34498 ft 439 kts
2026-04-24 22:19 40.07977 28.18410 34259 ft 439 kts
2026-04-24 22:20 40.11013 28.18845 34014 ft 438 kts
2026-04-24 22:20 40.14047 28.19282 33747 ft 438 kts
2026-04-24 22:20 40.17076 28.19716 33468 ft 438 kts
2026-04-24 22:20 40.20112 28.20150 33191 ft 439 kts
2026-04-24 22:21 40.23146 28.20581 32880 ft 438 kts
2026-04-24 22:21 40.26188 28.21011 31914 ft 441 kts
2026-04-24 22:21 40.29207 28.21437 31088 ft 431 kts
2026-04-24 22:21 40.32169 28.21853 30175 ft 425 kts
2026-04-24 22:22 40.35055 28.22263 29143 ft 419 kts
2026-04-24 22:22 40.37953 28.22679 28429 ft 417 kts
2026-04-24 22:22 40.40821 28.23092 27889 ft 413 kts
2026-04-24 22:22 40.43674 28.23506 27282 ft 410 kts
2026-04-24 22:23 40.46502 28.23918 26692 ft 407 kts
2026-04-24 22:23 40.49314 28.24325 26096 ft 405 kts
2026-04-24 22:23 40.52116 28.24728 25507 ft 404 kts
2026-04-24 22:23 40.54902 28.25128 24927 ft 402 kts
2026-04-24 22:24 40.57681 28.25531 24342 ft 401 kts
2026-04-24 22:24 40.60423 28.25930 23767 ft 401 kts
2026-04-24 22:24 40.63192 28.26330 23123 ft 400 kts
2026-04-24 22:24 40.65952 28.26730 22550 ft 397 kts
2026-04-24 22:25 40.68691 28.27128 21989 ft 395 kts
2026-04-24 22:25 40.71418 28.27521 21444 ft 393 kts
2026-04-24 22:25 40.74129 28.27910 20901 ft 391 kts
2026-04-24 22:25 40.75919 28.28168 20558 ft 390 kts
2026-04-24 22:26 40.78613 28.28559 20044 ft 389 kts
2026-04-24 22:26 40.81297 28.28951 19537 ft 387 kts
2026-04-24 22:26 40.83960 28.29339 19042 ft 385 kts
2026-04-24 22:26 40.86617 28.29727 18530 ft 383 kts
2026-04-24 22:27 40.89261 28.30114 17997 ft 381 kts
2026-04-24 22:27 40.91835 28.30809 17474 ft 377 kts 19°
2026-04-24 22:27 40.94153 28.32372 16969 ft 374 kts 34°
2026-04-24 22:27 40.96052 28.34697 16408 ft 373 kts 50°
2026-04-24 22:28 40.97402 28.37620 15833 ft 374 kts 65°
2026-04-24 22:28 40.98129 28.40919 15228 ft 375 kts 76°
2026-04-24 22:28 40.98660 28.44291 14622 ft 374 kts 76°
2026-04-24 22:28 40.99191 28.47654 14005 ft 373 kts 76°
2026-04-24 22:29 41.00248 28.54334 12772 ft 368 kts 76°
2026-04-24 22:29 41.00768 28.57627 12213 ft 363 kts 76°
2026-04-24 22:29 41.01282 28.60886 11655 ft 360 kts 76°
2026-04-24 22:30 41.01791 28.64111 11094 ft 356 kts 76°
2026-04-24 22:30 41.02292 28.67299 10743 ft 348 kts 76°
2026-04-24 22:30 41.02771 28.70368 10617 ft 333 kts 76°
2026-04-24 22:30 41.03230 28.73315 10493 ft 320 kts 76°
2026-04-24 22:31 41.03670 28.76150 10373 ft 308 kts 76°
2026-04-24 22:31 41.04081 28.78859 10133 ft 293 kts 76°
2026-04-24 22:31 41.04475 28.81470 9761 ft 283 kts 76°
2026-04-24 22:31 41.04852 28.83982 9643 ft 284 kts 77°
2026-04-24 22:32 41.05237 28.86549 9488 ft 285 kts 77°
2026-04-24 22:32 41.05402 28.89157 9140 ft 285 kts 92°
2026-04-24 22:32 41.05018 28.91732 8783 ft 287 kts 108°
2026-04-24 22:32 41.04124 28.94092 8440 ft 288 kts 120°
2026-04-24 22:33 41.03083 28.96352 8083 ft 287 kts 120°
2026-04-24 22:33 41.02048 28.98605 7736 ft 286 kts 119°
2026-04-24 22:33 41.01018 29.00851 7382 ft 285 kts 119°
2026-04-24 22:33 41.00000 29.03074 7182 ft 278 kts 119°
2026-04-24 22:34 40.99201 29.05375 6747 ft 273 kts 101°
2026-04-24 22:34 40.99030 29.07830 6369 ft 267 kts 83°
2026-04-24 22:34 40.99444 29.10171 6047 ft 254 kts 65°
2026-04-24 22:34 41.00268 29.12132 5882 ft 236 kts 57°
2026-04-24 22:35 41.01218 29.13841 5494 ft 228 kts 41°
2026-04-24 22:35 41.02578 29.14864 5075 ft 226 kts 14°
2026-04-24 22:35 41.04136 29.14969 4963 ft 223 kts 349°
2026-04-24 22:35 41.05525 29.14224 4857 ft 214 kts 330°
2026-04-24 22:36 41.06786 29.13193 4748 ft 213 kts 326°
2026-04-24 22:36 41.07834 29.11812 4647 ft 215 kts 305°
2026-04-24 22:36 41.08459 29.10032 4534 ft 210 kts 285°
2026-04-24 22:36 41.08587 29.08136 4275 ft 208 kts 265°
2026-04-24 22:37 41.08204 29.06294 3981 ft 208 kts 243°
2026-04-24 22:37 41.07467 29.04652 3740 ft 205 kts 239°
2026-04-24 22:37 41.06740 29.03064 3611 ft 199 kts 239°
2026-04-24 22:37 41.06014 29.01482 3436 ft 199 kts 238°
2026-04-24 22:38 41.05299 28.99927 3143 ft 196 kts 238°
2026-04-24 22:38 41.04594 28.98395 2863 ft 194 kts 238°
2026-04-24 22:38 41.03896 28.96880 2581 ft 191 kts 238°
2026-04-24 22:38 41.03209 28.95389 2323 ft 188 kts 238°
2026-04-24 22:39 41.02545 28.93947 2055 ft 178 kts 238°
2026-04-24 22:39 41.01940 28.92632 1828 ft 159 kts 237°
2026-04-24 22:39 41.01387 28.91433 1599 ft 148 kts 237°
2026-04-24 22:39 41.00857 28.90286 1387 ft 144 kts 237°
2026-04-24 22:40 41.00336 28.89158 1180 ft 143 kts 237°
2026-04-24 22:40 40.99818 28.88037 967 ft 143 kts 238°
2026-04-24 22:40 40.99307 28.86911 746 ft 143 kts 238°
2026-04-24 22:40 40.98779 28.85791 564 ft 143 kts 238°
2026-04-24 22:41 40.98262 28.84661 329 ft 143 kts 239°
2026-04-24 22:41 40.97740 28.83539 141 ft 143 kts 239°
2026-04-24 22:41 40.97266 28.82510 109 ft 113 kts 238°
2026-04-24 22:41 40.97011 28.81960 103 ft 26 kts 241°
2026-04-24 22:42 40.96995 28.81811 105 ft 16 kts 261°
2026-04-24 22:42 40.96990 28.81682 103 ft 6 kts 268°
2026-04-24 22:42 40.96989 28.81650 104 ft 0 kts 269°
2026-04-24 22:44 40.96989 28.81643 104 ft 1 kts 269°
2026-04-24 22:44 40.96989 28.81630 105 ft 1 kts 268°
2026-04-24 22:45 40.96989 28.81622 105 ft 1 kts 268°
2026-04-24 22:45 40.96988 28.81602 106 ft 4 kts 269°
2026-04-24 22:45 40.96988 28.81547 107 ft 9 kts 270°
2026-04-24 22:45 40.97024 28.81459 108 ft 14 kts 326°
2026-04-24 22:46 40.97127 28.81443 111 ft 16 kts 359°
2026-04-24 22:46 40.97250 28.81439 114 ft 18 kts 358°
2026-04-24 22:46 40.97384 28.81436 114 ft 17 kts 359°
2026-04-24 22:46 40.97484 28.81434 114 ft 15 kts 359°
2026-04-24 22:47 40.97594 28.81395 116 ft 18 kts 352°
2026-04-24 22:47 40.97719 28.81394 117 ft 18 kts
2026-04-24 22:47 40.97849 28.81414 122 ft 19 kts
2026-04-24 22:47 40.97987 28.81412 125 ft 20 kts 358°
2026-04-24 22:48 40.98094 28.81409 128 ft 15 kts 358°
2026-04-24 22:48 40.98174 28.81438 128 ft 13 kts 64°
2026-04-24 22:48 40.98200 28.81530 128 ft 9 kts 71°
2026-04-24 22:48 40.98205 28.81610 120 ft 12 kts 133°
2026-04-24 22:49 40.98157 28.81615 118 ft 5 kts 178°
2026-04-24 22:49 40.98149 28.81615 121 ft 0 kts 179°